Location: Dammartin
(48.9032°N, 1.6195°E)
Time: 15:57:32
(UTC+00:00)

COSMOS 2428 - Pass Details

Date: 03 February 2023
Orbit: 843 x 858 km, 70.9° (Epoch: 30 March)

Event Time Altitude Azimuth Distance (km) Brightness Sun altitude
Rises 20:09:57 0° 210° (SSW) 3,391 6.0 -32.3°
Reaches altitude 10° 20:12:24 10° 211° (SSW) 2,459 5.3 -32.7°
Enters shadow 20:14:24 23° 214° (SSW) 1,719 4.4 -33.0°
